Time,TemperatureF,DewpointF,PressureIn,WindDirection,WindDirectionDegrees,WindSpeedMPH,WindSpeedGustMPH,Humidity,HourlyPrecipIn,Conditions,Clouds,dailyrainin,SoftwareType,DateUTC
2013-08-31 00:00:00,80.7,75.1,29.90,South,172,0.0,0.0,83,0.00,,,0.00,Wunderground v.1.15,2013-08-31 04:00:00,
2013-08-31 00:02:00,80.6,75.0,29.90,SSE,154,0.0,1.0,83,0.00,,,0.00,Wunderground v.1.15,2013-08-31 04:02:00,
2013-08-31 00:04:00,80.6,75.0,29.90,SE,127,0.0,1.0,83,0.00,,,0.00,Wunderground v.1.15,2013-08-31 04:04:00,
2013-08-31 00:10:00,80.5,74.9,29.90,South,184,0.0,0.0,83,0.00,,,0.00,Wunderground v.1.15,2013-08-31 04:10:00,
2013-08-31 00:12:00,80.5,75.2,29.90,South,170,0.0,0.0,84,0.00,,,0.00,Wunderground v.1.15,2013-08-31 04:12:00,
2013-08-31 00:18:00,80.4,75.1,29.90,SSE,167,0.0,0.0,84,0.00,,,0.00,Wunderground v.1.15,2013-08-31 04:18:00,
2013-08-31 00:20:00,80.3,75.0,29.90,SSW,205,0.0,0.0,84,0.00,,,0.00,Wunderground v.1.15,2013-08-31 04:20:00,
2013-08-31 00:26:00,80.3,75.0,29.90,SSE,148,0.0,0.0,84,0.00,,,0.00,Wunderground v.1.15,2013-08-31 04:26:00,
2013-08-31 00:32:00,80.2,74.9,29.91,SSW,193,1.0,3.0,84,0.00,,,0.00,Wunderground v.1.15,2013-08-31 04:32:00,
2013-08-31 00:34:00,80.2,74.9,29.90,South,189,1.0,3.0,84,0.00,,,0.00,Wunderground v.1.15,2013-08-31 04:34:00,
2013-08-31 00:40:00,80.2,74.9,29.90,SSW,200,1.0,1.0,84,0.00,,,0.00,Wunderground v.1.15,2013-08-31 04:40:00,
2013-08-31 00:46:00,80.1,74.8,29.90,SE,132,1.0,1.0,84,0.00,,,0.00,Wunderground v.1.15,2013-08-31 04:46:00,
2013-08-31 00:50:00,80.0,74.7,29.90,SE,137,1.0,1.0,84,0.00,,,0.00,Wunderground v.1.15,2013-08-31 04:50:00,
2013-08-31 00:56:00,79.9,75.0,29.90,SE,129,1.0,1.0,85,0.00,,,0.00,Wunderground v.1.15,2013-08-31 04:56:00,
2013-08-31 01:02:00,79.8,74.9,29.90,SE,138,1.0,1.0,85,0.00,,,0.00,Wunderground v.1.15,2013-08-31 05:02:00,
2013-08-31 01:08:00,79.7,74.8,29.90,ESE,122,0.0,1.0,85,0.00,,,0.00,Wunderground v.1.15,2013-08-31 05:08:00,
2013-08-31 01:14:00,79.6,75.0,29.90,SSE,150,0.0,1.0,86,0.00,,,0.00,Wunderground v.1.15,2013-08-31 05:14:00,
2013-08-31 01:20:00,79.5,74.9,29.90,SE,139,0.0,0.0,86,0.00,,,0.00,Wunderground v.1.15,2013-08-31 05:20:00,
2013-08-31 01:26:00,79.5,74.9,29.90,SE,127,0.0,0.0,86,0.00,,,0.00,Wunderground v.1.15,2013-08-31 05:26:00,
2013-08-31 01:32:00,79.3,74.7,29.90,SE,146,0.0,0.0,86,0.00,,,0.00,Wunderground v.1.15,2013-08-31 05:32:00,
2013-08-31 01:38:00,79.2,74.6,29.90,South,179,0.0,0.0,86,0.00,,,0.00,Wunderground v.1.15,2013-08-31 05:38:00,
2013-08-31 01:44:00,79.1,74.5,29.90,South,169,0.0,2.0,86,0.00,,,0.00,Wunderground v.1.15,2013-08-31 05:44:00,
2013-08-31 01:50:00,79.1,74.9,29.90,SE,134,1.0,2.0,87,0.00,,,0.00,Wunderground v.1.15,2013-08-31 05:50:00,
2013-08-31 01:56:00,79.2,75.0,29.90,SE,125,0.0,2.0,87,0.00,,,0.00,Wunderground v.1.15,2013-08-31 05:56:00,
2013-08-31 02:02:00,79.2,75.0,29.90,South,171,0.0,2.0,87,0.00,,,0.00,Wunderground v.1.15,2013-08-31 06:02:00,
2013-08-31 02:08:00,79.2,75.0,29.89,South,183,1.0,2.0,87,0.00,,,0.00,Wunderground v.1.15,2013-08-31 06:08:00,
2013-08-31 02:14:00,79.1,74.5,29.89,SSE,167,1.0,1.0,86,0.00,,,0.00,Wunderground v.1.15,2013-08-31 06:14:00,
2013-08-31 02:20:00,79.0,74.8,29.89,South,191,0.0,0.0,87,0.00,,,0.00,Wunderground v.1.15,2013-08-31 06:20:00,
2013-08-31 02:26:00,79.0,74.5,29.90,SSW,211,0.0,2.0,86,0.00,,,0.00,Wunderground v.1.15,2013-08-31 06:26:00,
2013-08-31 02:32:00,79.1,74.5,29.89,SSW,208,1.0,1.0,86,0.00,,,0.00,Wunderground v.1.15,2013-08-31 06:32:00,
2013-08-31 02:38:00,79.2,74.6,29.89,SSW,213,1.0,2.0,86,0.00,,,0.00,Wunderground v.1.15,2013-08-31 06:38:00,
2013-08-31 02:44:00,79.2,74.6,29.89,SE,136,0.0,1.0,86,0.00,,,0.00,Wunderground v.1.15,2013-08-31 06:44:00,
2013-08-31 02:50:00,79.2,74.6,29.89,SE,140,1.0,1.0,86,0.00,,,0.00,Wunderground v.1.15,2013-08-31 06:50:00,
2013-08-31 02:56:00,79.1,74.5,29.88,SSW,199,1.0,1.0,86,0.00,,,0.00,Wunderground v.1.15,2013-08-31 06:56:00,
2013-08-31 03:02:00,79.0,74.8,29.88,SSE,151,1.0,1.0,87,0.00,,,0.00,Wunderground v.1.15,2013-08-31 07:02:00,
2013-08-31 03:08:00,78.9,74.7,29.88,SE,135,0.0,1.0,87,0.00,,,0.00,Wunderground v.1.15,2013-08-31 07:08:00,
2013-08-31 03:14:00,78.9,74.7,29.88,SSW,199,0.0,1.0,87,0.00,,,0.00,Wunderground v.1.15,2013-08-31 07:14:00,
2013-08-31 03:20:00,78.8,74.6,29.88,SSW,206,0.0,1.0,87,0.00,,,0.00,Wunderground v.1.15,2013-08-31 07:20:00,
2013-08-31 03:26:00,78.8,74.6,29.88,SSW,203,0.0,1.0,87,0.00,,,0.00,Wunderground v.1.15,2013-08-31 07:26:00,
2013-08-31 03:32:00,78.8,74.6,29.88,South,189,0.0,0.0,87,0.00,,,0.00,Wunderground v.1.15,2013-08-31 07:32:00,
2013-08-31 03:38:00,78.7,74.8,29.88,SSW,209,0.0,1.0,88,0.00,,,0.00,Wunderground v.1.15,2013-08-31 07:38:00,
2013-08-31 03:44:00,78.6,74.7,29.88,South,176,0.0,0.0,88,0.00,,,0.00,Wunderground v.1.15,2013-08-31 07:44:00,
2013-08-31 03:50:00,78.5,74.6,29.88,South,176,0.0,0.0,88,0.00,,,0.00,Wunderground v.1.15,2013-08-31 07:50:00,
2013-08-31 03:56:00,78.4,74.5,29.87,WSW,245,0.0,1.0,88,0.00,,,0.00,Wunderground v.1.15,2013-08-31 07:56:00,
2013-08-31 04:02:00,78.4,74.5,29.87,South,176,0.0,0.0,88,0.00,,,0.00,Wunderground v.1.15,2013-08-31 08:02:00,
2013-08-31 04:08:00,78.3,74.5,29.88,South,186,0.0,0.0,88,0.00,,,0.00,Wunderground v.1.15,2013-08-31 08:08:00,
2013-08-31 04:14:00,78.2,74.7,29.88,South,186,0.0,0.0,89,0.00,,,0.00,Wunderground v.1.15,2013-08-31 08:14:00,
2013-08-31 04:20:00,78.0,74.5,29.87,South,186,0.0,0.0,89,0.00,,,0.00,Wunderground v.1.15,2013-08-31 08:20:00,
2013-08-31 04:26:00,78.0,74.5,29.87,South,186,0.0,0.0,89,0.00,,,0.00,Wunderground v.1.15,2013-08-31 08:26:00,
2013-08-31 04:32:00,77.9,74.7,29.87,South,186,0.0,0.0,90,0.00,,,0.00,Wunderground v.1.15,2013-08-31 08:32:00,
2013-08-31 04:38:00,77.9,74.4,29.87,SW,215,0.0,0.0,89,0.00,,,0.00,Wunderground v.1.15,2013-08-31 08:38:00,
2013-08-31 04:44:00,78.1,74.6,29.86,WSW,245,0.0,1.0,89,0.00,,,0.00,Wunderground v.1.15,2013-08-31 08:44:00,
2013-08-31 04:50:00,78.4,74.9,29.86,WSW,249,0.0,0.0,89,0.00,,,0.00,Wunderground v.1.15,2013-08-31 08:50:00,
2013-08-31 04:56:00,78.5,75.0,29.86,SE,128,0.0,1.0,89,0.00,,,0.00,Wunderground v.1.15,2013-08-31 08:56:00,
2013-08-31 05:02:00,78.3,74.8,29.86,SE,130,0.0,2.0,89,0.00,,,0.00,Wunderground v.1.15,2013-08-31 09:02:00,
2013-08-31 05:08:00,78.2,75.0,29.86,SE,129,0.0,2.0,90,0.00,,,0.00,Wunderground v.1.15,2013-08-31 09:08:00,
2013-08-31 05:14:00,78.0,74.8,29.86,SE,140,0.0,2.0,90,0.00,,,0.00,Wunderground v.1.15,2013-08-31 09:14:00,
2013-08-31 05:20:00,77.8,74.6,29.86,SE,141,0.0,2.0,90,0.00,,,0.00,Wunderground v.1.15,2013-08-31 09:20:00,
2013-08-31 05:26:00,77.6,74.8,29.86,SE,140,0.0,2.0,91,0.00,,,0.00,Wunderground v.1.15,2013-08-31 09:26:00,
2013-08-31 05:32:00,77.5,74.7,29.87,SE,143,1.0,2.0,91,0.00,,,0.00,Wunderground v.1.15,2013-08-31 09:32:00,
2013-08-31 05:38:00,77.4,74.6,29.87,SE,135,1.0,2.0,91,0.00,,,0.00,Wunderground v.1.15,2013-08-31 09:38:00,
2013-08-31 05:44:00,77.3,74.8,29.87,SE,138,2.0,2.0,92,0.00,,,0.00,Wunderground v.1.15,2013-08-31 09:44:00,
2013-08-31 05:50:00,77.2,74.7,29.87,SSE,148,1.0,1.0,92,0.00,,,0.00,Wunderground v.1.15,2013-08-31 09:50:00,
2013-08-31 05:56:00,77.1,74.6,29.88,SE,131,0.0,2.0,92,0.00,,,0.00,Wunderground v.1.15,2013-08-31 09:56:00,
2013-08-31 06:02:00,77.0,74.5,29.87,ESE,120,1.0,2.0,92,0.00,,,0.00,Wunderground v.1.15,2013-08-31 10:02:00,
2013-08-31 06:08:00,77.0,74.5,29.87,SSE,150,1.0,2.0,92,0.00,,,0.00,Wunderground v.1.15,2013-08-31 10:08:00,
2013-08-31 06:14:00,77.0,74.5,29.88,SE,132,1.0,2.0,92,0.00,,,0.00,Wunderground v.1.15,2013-08-31 10:14:00,
2013-08-31 06:20:00,77.0,74.5,29.88,SSE,147,1.0,2.0,92,0.00,,,0.00,Wunderground v.1.15,2013-08-31 10:20:00,
2013-08-31 06:26:00,77.1,74.6,29.88,SE,140,1.0,2.0,92,0.00,,,0.00,Wunderground v.1.15,2013-08-31 10:26:00,
2013-08-31 06:32:00,77.1,74.6,29.88,ESE,118,0.0,2.0,92,0.00,,,0.00,Wunderground v.1.15,2013-08-31 10:32:00,
2013-08-31 06:38:00,77.1,74.6,29.89,ESE,119,0.0,2.0,92,0.00,,,0.00,Wunderground v.1.15,2013-08-31 10:38:00,
2013-08-31 06:44:00,77.1,74.6,29.88,SE,131,0.0,2.0,92,0.00,,,0.00,Wunderground v.1.15,2013-08-31 10:44:00,
2013-08-31 06:50:00,77.0,74.5,29.89,SE,131,0.0,2.0,92,0.00,,,0.00,Wunderground v.1.15,2013-08-31 10:50:00,
2013-08-31 06:56:00,77.0,74.8,29.89,SE,141,0.0,2.0,93,0.00,,,0.00,Wunderground v.1.15,2013-08-31 10:56:00,
2013-08-31 07:02:00,77.0,74.5,29.89,SE,132,1.0,2.0,92,0.00,,,0.00,Wunderground v.1.15,2013-08-31 11:02:00,
2013-08-31 07:08:00,77.1,74.6,29.89,SSE,158,1.0,2.0,92,0.00,,,0.00,Wunderground v.1.15,2013-08-31 11:08:00,
2013-08-31 07:14:00,77.1,74.6,29.89,SE,136,0.0,2.0,92,0.00,,,0.00,Wunderground v.1.15,2013-08-31 11:14:00,
2013-08-31 07:20:00,77.2,74.7,29.89,ESE,121,0.0,2.0,92,0.00,,,0.00,Wunderground v.1.15,2013-08-31 11:20:00,
2013-08-31 07:26:00,77.3,74.8,29.89,ESE,116,0.0,2.0,92,0.00,,,0.00,Wunderground v.1.15,2013-08-31 11:26:00,
2013-08-31 07:32:00,77.5,74.7,29.90,ESE,111,0.0,2.0,91,0.00,,,0.00,Wunderground v.1.15,2013-08-31 11:32:00,
2013-08-31 07:38:00,77.7,74.9,29.90,SE,142,0.0,2.0,91,0.00,,,0.00,Wunderground v.1.15,2013-08-31 11:38:00,
2013-08-31 07:44:00,78.0,75.2,29.90,ESE,120,0.0,2.0,91,0.00,,,0.00,Wunderground v.1.15,2013-08-31 11:44:00,
2013-08-31 07:50:00,78.7,75.2,29.90,SE,125,0.0,2.0,89,0.00,,,0.00,Wunderground v.1.15,2013-08-31 11:50:00,
2013-08-31 07:56:00,79.7,75.5,29.90,SE,137,1.0,2.0,87,0.00,,,0.00,Wunderground v.1.15,2013-08-31 11:56:00,
2013-08-31 08:02:00,80.8,75.5,29.90,SSE,148,0.0,2.0,84,0.00,,,0.00,Wunderground v.1.15,2013-08-31 12:02:00,
2013-08-31 08:08:00,81.2,75.2,29.91,SSE,148,1.0,2.0,82,0.00,,,0.00,Wunderground v.1.15,2013-08-31 12:08:00,
2013-08-31 08:14:00,81.9,75.5,29.90,SSE,153,1.0,2.0,81,0.00,,,0.00,Wunderground v.1.15,2013-08-31 12:14:00,
2013-08-31 08:20:00,82.4,74.5,29.90,South,172,1.0,2.0,77,0.00,,,0.00,Wunderground v.1.15,2013-08-31 12:20:00,
2013-08-31 08:26:00,82.9,74.2,29.91,SSE,148,2.0,3.0,75,0.00,,,0.00,Wunderground v.1.15,2013-08-31 12:26:00,
2013-08-31 08:32:00,83.4,73.4,29.91,SE,139,2.0,2.0,72,0.00,,,0.00,Wunderground v.1.15,2013-08-31 12:32:00,
2013-08-31 08:38:00,83.4,73.8,29.91,ESE,120,1.0,3.0,73,0.00,,,0.00,Wunderground v.1.15,2013-08-31 12:38:00,
2013-08-31 08:44:00,83.8,74.6,29.91,SSE,160,2.0,3.0,74,0.00,,,0.00,Wunderground v.1.15,2013-08-31 12:44:00,
2013-08-31 08:50:00,84.4,75.2,29.91,SE,146,2.0,2.0,74,0.00,,,0.00,Wunderground v.1.15,2013-08-31 12:50:00,
2013-08-31 08:56:00,84.8,75.6,29.91,SSE,165,2.0,2.0,74,0.00,,,0.00,Wunderground v.1.15,2013-08-31 12:56:00,
2013-08-31 09:02:00,85.6,75.9,29.91,SSE,150,1.0,2.0,73,0.00,,,0.00,Wunderground v.1.15,2013-08-31 13:02:00,
2013-08-31 09:08:00,86.1,76.0,29.92,South,179,2.0,2.0,72,0.00,,,0.00,Wunderground v.1.15,2013-08-31 13:08:00,
2013-08-31 09:14:00,86.0,75.9,29.92,SSE,167,3.0,3.0,72,0.00,,,0.00,Wunderground v.1.15,2013-08-31 13:14:00,
2013-08-31 09:20:00,85.7,75.6,29.91,SE,140,3.0,3.0,72,0.00,,,0.00,Wunderground v.1.15,2013-08-31 13:20:00,
2013-08-31 09:26:00,86.1,76.0,29.92,SSE,156,2.0,3.0,72,0.00,,,0.00,Wunderground v.1.15,2013-08-31 13:26:00,
2013-08-31 09:32:00,85.8,75.3,29.92,South,173,3.0,3.0,71,0.00,,,0.00,Wunderground v.1.15,2013-08-31 13:32:00,
2013-08-31 09:38:00,85.3,75.7,29.92,ESE,108,3.0,8.0,73,0.00,,,0.00,Wunderground v.1.15,2013-08-31 13:38:00,
2013-08-31 09:44:00,84.4,75.6,29.92,ESE,123,3.0,3.0,75,0.00,,,0.00,Wunderground v.1.15,2013-08-31 13:44:00,
2013-08-31 09:50:00,84.7,75.5,29.92,SE,128,2.0,3.0,74,0.00,,,0.00,Wunderground v.1.15,2013-08-31 13:50:00,
2013-08-31 09:56:00,84.7,75.1,29.92,SE,142,3.0,4.0,73,0.00,,,0.00,Wunderground v.1.15,2013-08-31 13:56:00,
2013-08-31 10:02:00,85.0,75.8,29.92,SE,131,4.0,4.0,74,0.00,,,0.00,Wunderground v.1.15,2013-08-31 14:02:00,
2013-08-31 10:08:00,86.4,75.0,29.92,WSW,243,3.0,4.0,69,0.00,,,0.00,Wunderground v.1.15,2013-08-31 14:08:00,
2013-08-31 10:14:00,87.4,73.7,29.92,SSW,198,2.0,5.0,64,0.00,,,0.00,Wunderground v.1.15,2013-08-31 14:14:00,
2013-08-31 10:20:00,87.5,73.3,29.92,SE,140,3.0,3.0,63,0.00,,,0.00,Wunderground v.1.15,2013-08-31 14:20:00,
2013-08-31 10:26:00,87.7,74.5,29.92,SE,142,2.0,4.0,65,0.00,,,0.00,Wunderground v.1.15,2013-08-31 14:26:00,
2013-08-31 10:32:00,88.0,73.8,29.92,SSW,207,2.0,2.0,63,0.00,,,0.00,Wunderground v.1.15,2013-08-31 14:32:00,
2013-08-31 10:38:00,89.1,73.4,29.92,SSE,162,2.0,4.0,60,0.00,,,0.00,Wunderground v.1.15,2013-08-31 14:38:00,
2013-08-31 10:44:00,89.0,73.3,29.92,SSW,207,2.0,2.0,60,0.00,,,0.00,Wunderground v.1.15,2013-08-31 14:44:00,
2013-08-31 10:50:00,89.2,73.5,29.92,West,278,2.0,2.0,60,0.00,,,0.00,Wunderground v.1.15,2013-08-31 14:50:00,
2013-08-31 10:56:00,90.0,70.6,29.93,SW,234,2.0,2.0,53,0.00,,,0.00,Wunderground v.1.15,2013-08-31 14:56:00,
2013-08-31 11:02:00,90.4,73.1,29.93,SSW,193,2.0,5.0,57,0.00,,,0.00,Wunderground v.1.15,2013-08-31 15:02:00,
2013-08-31 11:08:00,90.5,73.2,29.93,SSW,196,2.0,5.0,57,0.00,,,0.00,Wunderground v.1.15,2013-08-31 15:08:00,
2013-08-31 11:14:00,90.4,72.0,29.93,ESE,108,2.0,3.0,55,0.00,,,0.00,Wunderground v.1.15,2013-08-31 15:14:00,
2013-08-31 11:20:00,90.0,72.7,29.92,South,175,2.0,2.0,57,0.00,,,0.00,Wunderground v.1.15,2013-08-31 15:20:00,
2013-08-31 11:26:00,90.7,73.4,29.93,SE,135,2.0,3.0,57,0.00,,,0.00,Wunderground v.1.15,2013-08-31 15:26:00,
2013-08-31 11:32:00,90.8,72.9,29.93,SW,221,3.0,3.0,56,0.00,,,0.00,Wunderground v.1.15,2013-08-31 15:32:00,
2013-08-31 11:38:00,91.3,72.9,29.93,ENE,75,2.0,3.0,55,0.00,,,0.00,Wunderground v.1.15,2013-08-31 15:38:00,
2013-08-31 11:44:00,91.5,73.6,29.93,ENE,68,1.0,2.0,56,0.00,,,0.00,Wunderground v.1.15,2013-08-31 15:44:00,
2013-08-31 11:50:00,90.4,73.6,29.92,WNW,290,1.0,2.0,58,0.00,,,0.00,Wunderground v.1.15,2013-08-31 15:50:00,
2013-08-31 11:56:00,90.2,73.9,29.93,South,186,2.0,4.0,59,0.00,,,0.00,Wunderground v.1.15,2013-08-31 15:56:00,
2013-08-31 12:02:00,90.2,73.4,29.92,SSE,165,2.0,3.0,58,0.00,,,0.00,Wunderground v.1.15,2013-08-31 16:02:00,
2013-08-31 12:08:00,91.3,73.9,29.92,WSW,240,1.0,3.0,57,0.00,,,0.00,Wunderground v.1.15,2013-08-31 16:08:00,
2013-08-31 12:14:00,91.5,73.6,29.92,SSW,195,2.0,4.0,56,0.00,,,0.00,Wunderground v.1.15,2013-08-31 16:14:00,
2013-08-31 12:20:00,92.3,73.2,29.92,WNW,292,2.0,3.0,54,0.00,,,0.00,Wunderground v.1.15,2013-08-31 16:20:00,
2013-08-31 12:26:00,92.0,73.5,29.92,South,188,3.0,3.0,55,0.00,,,0.00,Wunderground v.1.15,2013-08-31 16:26:00,
2013-08-31 12:32:00,91.7,73.2,29.92,SSE,155,2.0,2.0,55,0.00,,,0.00,Wunderground v.1.15,2013-08-31 16:32:00,
2013-08-31 12:38:00,90.5,72.7,29.91,WSW,251,2.0,3.0,56,0.00,,,0.00,Wunderground v.1.15,2013-08-31 16:38:00,
2013-08-31 12:44:00,90.6,72.8,29.91,SSW,212,2.0,2.0,56,0.00,,,0.00,Wunderground v.1.15,2013-08-31 16:44:00,
2013-08-31 12:50:00,91.7,72.1,29.91,SW,225,2.0,4.0,53,0.00,,,0.00,Wunderground v.1.15,2013-08-31 16:50:00,
2013-08-31 12:56:00,92.2,72.0,29.91,WNW,303,2.0,4.0,52,0.00,,,0.00,Wunderground v.1.15,2013-08-31 16:56:00,
2013-08-31 13:02:00,92.0,73.0,29.91,SSE,167,3.0,4.0,54,0.00,,,0.00,Wunderground v.1.15,2013-08-31 17:02:00,
2013-08-31 13:08:00,93.6,73.3,29.91,South,189,3.0,4.0,52,0.00,,,0.00,Wunderground v.1.15,2013-08-31 17:08:00,
2013-08-31 13:14:00,93.9,73.0,29.90,SE,127,3.0,7.0,51,0.00,,,0.00,Wunderground v.1.15,2013-08-31 17:14:00,
2013-08-31 13:20:00,95.0,71.6,29.90,SE,146,2.0,2.0,47,0.00,,,0.00,Wunderground v.1.15,2013-08-31 17:20:00,
2013-08-31 13:26:00,95.2,72.4,29.90,SSE,147,2.0,2.0,48,0.00,,,0.00,Wunderground v.1.15,2013-08-31 17:26:00,
2013-08-31 13:32:00,94.0,70.1,29.90,South,172,2.0,3.0,46,0.00,,,0.00,Wunderground v.1.15,2013-08-31 17:32:00,
2013-08-31 13:38:00,90.4,75.1,29.91,ESE,110,4.0,6.0,61,0.00,,,0.00,Wunderground v.1.15,2013-08-31 17:38:00,
2013-08-31 13:44:00,88.2,75.4,29.90,ESE,103,5.0,5.0,66,0.00,,,0.00,Wunderground v.1.15,2013-08-31 17:44:00,
2013-08-31 13:50:00,87.4,75.1,29.90,ESE,110,4.0,8.0,67,0.00,,,0.00,Wunderground v.1.15,2013-08-31 17:50:00,
2013-08-31 15:36:00,73.9,70.1,29.92,SW,226,6.0,6.0,88,0.35,,,0.20,Wunderground v.1.15,2013-08-31 19:36:00,
2013-08-31 15:42:00,73.4,70.3,29.93,SSE,154,5.0,9.0,90,0.42,,,0.23,Wunderground v.1.15,2013-08-31 19:42:00,
2013-08-31 15:48:00,72.9,70.1,29.93,SSW,209,5.0,5.0,91,0.29,,,0.27,Wunderground v.1.15,2013-08-31 19:48:00,
2013-08-31 15:54:00,72.7,69.9,29.92,South,178,4.0,5.0,91,0.21,,,0.29,Wunderground v.1.15,2013-08-31 19:54:00,
2013-08-31 16:00:00,72.7,69.9,29.92,SE,141,4.0,4.0,91,0.14,,,0.30,Wunderground v.1.15,2013-08-31 20:00:00,
2013-08-31 16:06:00,72.5,69.4,29.90,SE,134,4.0,4.0,90,0.07,,,0.30,Wunderground v.1.15,2013-08-31 20:06:00,
2013-08-31 16:12:00,72.3,69.2,29.89,SSE,160,3.0,3.0,90,0.04,,,0.30,Wunderground v.1.15,2013-08-31 20:12:00,
2013-08-31 16:18:00,72.2,69.4,29.88,SSE,151,3.0,6.0,91,0.00,,,0.31,Wunderground v.1.15,2013-08-31 20:18:00,
2013-08-31 16:24:00,72.1,69.6,29.88,East,94,3.0,3.0,92,0.00,,,0.31,Wunderground v.1.15,2013-08-31 20:24:00,
2013-08-31 16:30:00,72.2,69.7,29.88,SSE,148,2.0,4.0,92,0.07,,,0.32,Wunderground v.1.15,2013-08-31 20:30:00,
2013-08-31 16:36:00,72.4,69.3,29.88,SE,144,2.0,16.0,90,0.23,,,0.34,Wunderground v.1.15,2013-08-31 20:36:00,
2013-08-31 16:42:00,72.7,69.3,29.88,ESE,116,3.0,16.0,89,0.08,,,0.34,Wunderground v.1.15,2013-08-31 20:42:00,
2013-08-31 16:48:00,73.0,68.9,29.88,SSE,165,3.0,16.0,87,0.05,,,0.34,Wunderground v.1.15,2013-08-31 20:48:00,
2013-08-31 16:54:00,72.9,69.5,29.88,South,174,2.0,16.0,89,0.00,,,0.34,Wunderground v.1.15,2013-08-31 20:54:00,
2013-08-31 17:00:00,72.9,69.8,29.88,SSW,205,1.0,1.0,90,0.00,,,0.35,Wunderground v.1.15,2013-08-31 21:00:00,
2013-08-31 17:06:00,73.0,69.9,29.88,SE,124,0.0,16.0,90,0.00,,,0.35,Wunderground v.1.15,2013-08-31 21:06:00,
2013-08-31 17:12:00,73.1,70.3,29.89,SSE,161,0.0,16.0,91,0.13,,,0.37,Wunderground v.1.15,2013-08-31 21:12:00,
2013-08-31 17:18:00,73.2,70.7,29.89,SSW,201,0.0,16.0,92,0.16,,,0.38,Wunderground v.1.15,2013-08-31 21:18:00,
2013-08-31 17:24:00,73.2,71.1,29.90,SSW,201,0.0,16.0,93,0.14,,,0.40,Wunderground v.1.15,2013-08-31 21:24:00,
2013-08-31 17:30:00,73.5,71.7,29.90,West,280,0.0,16.0,94,0.10,,,0.41,Wunderground v.1.15,2013-08-31 21:30:00,
2013-08-31 17:36:00,73.6,71.8,29.90,NW,317,1.0,16.0,94,0.12,,,0.42,Wunderground v.1.15,2013-08-31 21:36:00,
2013-08-31 17:42:00,73.8,72.0,29.90,NW,326,0.0,16.0,94,0.08,,,0.42,Wunderground v.1.15,2013-08-31 21:42:00,
2013-08-31 17:48:00,73.9,72.1,29.90,NE,34,0.0,16.0,94,0.04,,,0.42,Wunderground v.1.15,2013-08-31 21:48:00,
2013-08-31 17:54:00,74.0,71.8,29.89,NE,34,1.0,16.0,93,0.00,,,0.42,Wunderground v.1.15,2013-08-31 21:54:00,
2013-08-31 18:00:00,74.0,72.2,29.89,SE,127,0.0,16.0,94,0.00,,,0.43,Wunderground v.1.15,2013-08-31 22:00:00,
2013-08-31 18:06:00,74.1,72.3,29.89,ENE,66,1.0,16.0,94,0.00,,,0.43,Wunderground v.1.15,2013-08-31 22:06:00,
2013-08-31 18:12:00,74.1,72.3,29.88,NE,53,1.0,16.0,94,0.00,,,0.43,Wunderground v.1.15,2013-08-31 22:12:00,
2013-08-31 18:18:00,73.9,72.1,29.87,ENE,60,2.0,16.0,94,0.00,,,0.44,Wunderground v.1.15,2013-08-31 22:18:00,
2013-08-31 18:24:00,73.9,72.1,29.86,ENE,65,2.0,16.0,94,0.00,,,0.44,Wunderground v.1.15,2013-08-31 22:24:00,
2013-08-31 18:30:00,74.0,71.8,29.88,SE,136,1.0,16.0,93,0.00,,,0.44,Wunderground v.1.15,2013-08-31 22:30:00,
2013-08-31 18:36:00,74.4,72.6,29.88,SSW,200,1.0,16.0,94,0.00,,,0.44,Wunderground v.1.15,2013-08-31 22:36:00,
2013-08-31 18:42:00,74.6,72.8,29.89,SSW,207,1.0,16.0,94,0.00,,,0.44,Wunderground v.1.15,2013-08-31 22:42:00,
2013-08-31 18:48:00,74.8,72.6,29.90,WSW,249,0.0,16.0,93,0.00,,,0.44,Wunderground v.1.15,2013-08-31 22:48:00,
2013-08-31 18:54:00,74.7,72.9,29.90,West,272,1.0,16.0,94,0.00,,,0.44,Wunderground v.1.15,2013-08-31 22:54:00,
2013-08-31 19:00:00,74.9,73.4,29.91,WNW,285,2.0,2.0,95,0.00,,,0.44,Wunderground v.1.15,2013-08-31 23:00:00,
2013-08-31 19:06:00,74.9,73.4,29.91,SW,224,1.0,16.0,95,0.00,,,0.44,Wunderground v.1.15,2013-08-31 23:06:00,
2013-08-31 19:12:00,75.1,73.6,29.91,North,352,0.0,16.0,95,0.00,,,0.44,Wunderground v.1.15,2013-08-31 23:12:00,
2013-08-31 19:18:00,75.3,73.8,29.91,North,352,0.0,16.0,95,0.00,,,0.44,Wunderground v.1.15,2013-08-31 23:18:00,
2013-08-31 19:24:00,75.3,73.8,29.91,NNE,25,0.0,16.0,95,0.00,,,0.44,Wunderground v.1.15,2013-08-31 23:24:00,
2013-08-31 19:30:00,75.3,73.1,29.90,NNE,31,0.0,16.0,93,0.00,,,0.44,Wunderground v.1.15,2013-08-31 23:30:00,
2013-08-31 19:36:00,75.2,72.4,29.90,NE,49,1.0,16.0,91,0.00,,,0.44,Wunderground v.1.15,2013-08-31 23:36:00,
2013-08-31 19:42:00,75.0,72.2,29.90,North,1,0.0,16.0,91,0.00,,,0.44,Wunderground v.1.15,2013-08-31 23:42:00,
2013-08-31 19:48:00,74.8,72.0,29.90,North,1,0.0,16.0,91,0.00,,,0.44,Wunderground v.1.15,2013-08-31 23:48:00,
2013-08-31 19:54:00,74.7,72.2,29.91,North,9,0.0,16.0,92,0.00,,,0.44,Wunderground v.1.15,2013-08-31 23:54:00,
2013-08-31 20:00:00,74.6,72.1,29.90,North,9,0.0,16.0,92,0.00,,,0.44,Wunderground v.1.15,2013-09-01 00:00:00,
2013-08-31 20:06:00,74.5,72.0,29.91,North,9,0.0,16.0,92,0.00,,,0.44,Wunderground v.1.15,2013-09-01 00:06:00,
2013-08-31 20:12:00,74.2,72.0,29.91,North,9,0.0,16.0,93,0.00,,,0.44,Wunderground v.1.15,2013-09-01 00:12:00,
2013-08-31 20:18:00,74.2,72.0,29.91,North,9,0.0,16.0,93,0.00,,,0.44,Wunderground v.1.15,2013-09-01 00:18:00,
2013-08-31 20:24:00,74.2,72.4,29.91,North,9,0.0,16.0,94,0.00,,,0.44,Wunderground v.1.15,2013-09-01 00:24:00,
2013-08-31 20:30:00,74.3,72.5,29.91,North,9,0.0,16.0,94,0.00,,,0.44,Wunderground v.1.15,2013-09-01 00:30:00,
2013-08-31 20:36:00,74.1,72.3,29.91,North,9,0.0,16.0,94,0.00,,,0.44,Wunderground v.1.15,2013-09-01 00:36:00,
2013-08-31 20:42:00,73.9,72.4,29.91,North,9,0.0,16.0,95,0.00,,,0.44,Wunderground v.1.15,2013-09-01 00:42:00,
2013-08-31 20:48:00,74.0,72.5,29.91,North,9,0.0,16.0,95,0.00,,,0.44,Wunderground v.1.15,2013-09-01 00:48:00,
2013-08-31 20:54:00,74.0,72.8,29.92,North,9,0.0,16.0,96,0.00,,,0.44,Wunderground v.1.15,2013-09-01 00:54:00,
2013-08-31 21:00:00,74.0,72.8,29.92,North,9,0.0,16.0,96,0.00,,,0.44,Wunderground v.1.15,2013-09-01 01:00:00,
2013-08-31 21:06:00,74.0,72.8,29.92,SE,134,0.0,16.0,96,0.00,,,0.44,Wunderground v.1.15,2013-09-01 01:06:00,
2013-08-31 21:12:00,74.0,72.8,29.93,SE,134,0.0,16.0,96,0.00,,,0.44,Wunderground v.1.15,2013-09-01 01:12:00,
2013-08-31 21:18:00,74.0,72.8,29.92,SE,134,0.0,16.0,96,0.00,,,0.44,Wunderground v.1.15,2013-09-01 01:18:00,
2013-08-31 21:24:00,74.0,72.8,29.93,SE,134,0.0,16.0,96,0.00,,,0.44,Wunderground v.1.15,2013-09-01 01:24:00,
2013-08-31 21:30:00,74.0,72.8,29.93,SE,134,0.0,16.0,96,0.00,,,0.44,Wunderground v.1.15,2013-09-01 01:30:00,
2013-08-31 21:36:00,74.0,72.8,29.93,SE,129,0.0,16.0,96,0.00,,,0.44,Wunderground v.1.15,2013-09-01 01:36:00,
2013-08-31 21:42:00,74.0,72.8,29.93,SE,129,0.0,16.0,96,0.00,,,0.44,Wunderground v.1.15,2013-09-01 01:42:00,
2013-08-31 21:48:00,74.2,73.0,29.92,SE,127,0.0,16.0,96,0.00,,,0.44,Wunderground v.1.15,2013-09-01 01:48:00,
2013-08-31 21:54:00,74.1,72.9,29.92,SE,133,0.0,16.0,96,0.00,,,0.44,Wunderground v.1.15,2013-09-01 01:54:00,
2013-08-31 22:00:00,74.2,73.0,29.92,SE,133,0.0,16.0,96,0.00,,,0.44,Wunderground v.1.15,2013-09-01 02:00:00,
2013-08-31 22:06:00,74.0,72.5,29.92,SE,133,0.0,16.0,95,0.00,,,0.44,Wunderground v.1.15,2013-09-01 02:06:00,
2013-08-31 22:12:00,74.0,72.8,29.93,SE,133,0.0,16.0,96,0.00,,,0.44,Wunderground v.1.15,2013-09-01 02:12:00,
2013-08-31 22:18:00,73.9,72.7,29.92,SE,133,0.0,16.0,96,0.00,,,0.44,Wunderground v.1.15,2013-09-01 02:18:00,
2013-08-31 22:24:00,74.0,73.1,29.92,SE,133,0.0,16.0,97,0.00,,,0.44,Wunderground v.1.15,2013-09-01 02:24:00,
2013-08-31 22:30:00,74.0,73.1,29.92,SE,133,0.0,16.0,97,0.00,,,0.44,Wunderground v.1.15,2013-09-01 02:30:00,
2013-08-31 22:36:00,74.0,73.1,29.92,SE,133,0.0,16.0,97,0.00,,,0.44,Wunderground v.1.15,2013-09-01 02:36:00,
2013-08-31 22:42:00,74.0,73.1,29.92,SE,133,0.0,16.0,97,0.00,,,0.44,Wunderground v.1.15,2013-09-01 02:42:00,
2013-08-31 22:48:00,74.1,73.2,29.92,SE,133,0.0,16.0,97,0.00,,,0.44,Wunderground v.1.15,2013-09-01 02:48:00,
2013-08-31 22:54:00,74.2,73.3,29.92,SE,133,0.0,16.0,97,0.00,,,0.44,Wunderground v.1.15,2013-09-01 02:54:00,
2013-08-31 23:00:00,74.3,73.4,29.92,SE,133,0.0,16.0,97,0.00,,,0.44,Wunderground v.1.15,2013-09-01 03:00:00,
2013-08-31 23:06:00,74.3,73.4,29.93,SE,133,0.0,16.0,97,0.00,,,0.44,Wunderground v.1.15,2013-09-01 03:06:00,
2013-08-31 23:12:00,74.2,73.3,29.93,SE,133,0.0,16.0,97,0.00,,,0.44,Wunderground v.1.15,2013-09-01 03:12:00,
2013-08-31 23:18:00,74.2,73.3,29.92,SE,133,0.0,16.0,97,0.00,,,0.44,Wunderground v.1.15,2013-09-01 03:18:00,
2013-08-31 23:24:00,74.1,73.2,29.92,SE,133,0.0,16.0,97,0.00,,,0.44,Wunderground v.1.15,2013-09-01 03:24:00,
2013-08-31 23:30:00,74.1,73.2,29.91,SE,133,0.0,16.0,97,0.00,,,0.44,Wunderground v.1.15,2013-09-01 03:30:00,
2013-08-31 23:36:00,74.1,73.2,29.91,SE,133,0.0,16.0,97,0.00,,,0.44,Wunderground v.1.15,2013-09-01 03:36:00,
2013-08-31 23:42:00,73.9,73.0,29.91,SE,133,0.0,16.0,97,0.00,,,0.44,Wunderground v.1.15,2013-09-01 03:42:00,
2013-08-31 23:48:00,74.0,73.4,29.92,SE,133,0.0,16.0,98,0.00,,,0.44,Wunderground v.1.15,2013-09-01 03:48:00,
2013-08-31 23:54:00,74.2,73.3,29.91,SE,133,0.0,16.0,97,0.00,,,0.44,Wunderground v.1.15,2013-09-01 03:54:00,